CZ-6A DEB

Satellite information

Favourite Embed

Satellite Type and Status

DEBRISIN ORBIT

Key statistics

Satellite CZ-6A DEB at a glance.

Uptime

1129

Days in orbit

Revolutions

≈ 14.4

Per day

Orbit

SSO

Sun Synchronous Orbit

Inclination

98.7

Latest

Satellite identification and parameters

Extended collection of information and parameters for CZ-6A DEB.

Object identification

Identified? True

Debris? True

Object name: CZ-6A DEB

International designator: 2022-151MX

Object number (NORAD): 54597

Object ID (CCSDS): 54597

Country: PEOPLES REPUBLIC OF CHINA (PRC)

Current information (Y/N): Y

RCS size: SMALL

Orbital parameters

Period: 100.334 minutes

Inclination: 98.6714 deg

SMA: 7152.536 km

Apoapsis: 824.715 km

Periapsis: 724.088 km

RAAN: 7.0327 deg

Eccentricy: 0.00703436

Argument of periapsis: 257.5717 deg

Mean anomaly: 101.759 deg

Mean motion: 14.35200788 rev/day

Mean motion (dot): 0.00003868 rev/day2

B* drag term: 0.0013302289 1/REarth

Two-line elements (TLE)

Creation date: Dec. 14, 2025, 3:07 a.m.

Reference frame: TEME

Reference center: EARTH

Epoch: Dec. 13, 2025, 1:14 p.m. UTC

TLE line 0: 0 CZ-6A DEB

TLE line 1: 1 54597U 22151MX 25347.55194364 .00003868 00000-0 13302-2 0 9995

TLE line 2: 2 54597 98.6714 7.0327 0070344 257.5717 101.7590 14.35200788160589

Live tracking on map

Real-time ground track for satellite CZ-6A DEB.

In-orbit conjunctions

A list of the most updated potential collisions computed for object CZ-6A DEB.

Target Orbit TCA Probability of collision Miss distance Type
COSMOS 44 LEO 2025-12-04 06:45:44 0.0004494539 862.0 (m) PAYLOAD
NOAA 16 SSO 2024-10-14 09:37:31 0.0006208965 350.0 (m) PAYLOAD

Associated space launch

Chinese satellite reported for atmospheric/ocean/environmental/spatial parameter research purposes, details TBD.

CZ-6A DEB was lifted into orbit during the mission ‘Long March 6A | Yunhai 3’, on board a Long March 6A space rocket.

The launch took place on Nov. 11, 2022, 10:52 p.m. from Launch Complex 9A.

For more information about the launch, click the button.

Launch to space Long March 6A | Yunhai 3
Long March 6A | Yunhai 3

Agency: N/A

Status: Launch Successful

Launch date: Nov. 11, 2022, 10:52 p.m. UTC

Rocket: Long March 6A

Launch pad: Launch Complex 9A

Location: Taiyuan Satellite Launch Center, People's Republic of China

...

Latest news about this satellite

There are no fresh news available about this satellite. Check back as we update our databases every day.


Newsletter sign-up

Weekly statistics, charts and insights to help you stay on top of the space industry.